Location: Artiguedieu
(43.5000°N, 0.5454°E)
Time: 19:20:34
(UTC+00:00)

Transit 2A - Pass Details

Date: 24 July 2021
Orbit: 594 x 964 km, 66.7° (Epoch: 28 September)

Event Time Altitude Azimuth Distance (km) Brightness Sun altitude
Rises 09:45:32 0° 261° (W) 2,849 8.7 52.6°
Reaches altitude 10° 09:48:36 10° 285° (WNW) 1,982 7.9 53.0°
Maximum altitude 09:51:14 15° 322° (NW) 1,697 7.6 53.5°
Drops below altitude 10° 09:53:59 10° 358° (N) 2,075 8.2 53.9°
Sets 09:57:19 0° 21° (NNE) 3,065 9.1 54.4°
